Home > Weather > Paradise > Past weeks

Flag for USA Past Weather in Paradise, Nevada, USA — Yesterday and Last 2 Weeks

Now
88 °F

Scattered clouds.


Feels Like: 86 °F
Forecast: 80 / 99 °F
Wind: 6 mph from North

Location: McCarran International Airport

Current Time: Jul 1, 2016 at 1:52:24 PM

Latest Report: Jul 1, 2016 at 12:56 PM


Visibility: 10 mi

Pressure: 29.85 "Hg (27.77 "Hg at 643m altitude)

Humidity: 34%

Dew Point: 56 °F

Location of ParadiseLocation

Past Weather in Paradise — Graph

°F

Paradise Temperature Yesterday

Maximum temperature yesterday: 101 °F (at 12:56 PM)
Minimum temperature yesterday: 76 °F (at 3:56 PM)
Average temperature yesterday: 88 °F

High & Low Weather Summary for the Past Weeks

 TemperatureHumidityPressure
High115 °F (Jun 20, 3:56 PM)67% (Jun 30, 4:56 PM)29.95 "Hg (Jun 30, 4:56 PM)
Low74 °F (Jul 1, 4:56 AM)2% (Jun 18, 5:56 PM)29.60 "Hg (Jun 22, 5:56 PM)
Average96 °F13%29.77 "Hg
* Reported Jun 16 12:56 PM — Jul 1 12:56 PM, Paradise, Weather by CustomWeather, © 2016

Note: Actual official high and low records may vary slightly from our data, if they occured in-between our weather recording intervals... More about our weather records

Advertising

Paradise Weather History for the Previous 24 Hours

Scroll right to see more
 ConditionsComfort  
Time TempWeatherWind HumidityBarometerVisibility
12:56 PM
Fri, Jul 1
88 °FScattered clouds.6 mph34%29.85 "Hg10 mi
11:56 AM85 °FScattered clouds.3 mph40%29.87 "Hg10 mi
10:56 AM81 °FBroken clouds.6 mph49%29.89 "Hg10 mi
9:56 AM79 °FPartly sunny.3 mph50%29.89 "Hg10 mi
8:56 AM77 °FPartly sunny.3 mph56%29.89 "Hg10 mi
7:56 AM76 °FPartly sunny.No wind58%29.89 "Hg10 mi
6:56 AM74 °FPartly sunny.5 mph67%29.87 "Hg10 mi
5:56 AM74 °FPassing clouds.No wind62%29.84 "Hg10 mi
4:56 AM74 °FPassing clouds.6 mph64%29.82 "Hg10 mi
3:56 AM76 °FMostly cloudy.3 mph62%29.86 "Hg10 mi
2:56 AM75 °FThunderstorms. Mostly cloudy.16 mph66%29.92 "Hg10 mi
1:56 AM78 °FThunderstorms. Partly cloudy.18 mph54%29.89 "Hg7 mi
12:56 AM80 °FPartly cloudy.13 mph47%29.85 "Hg10 mi
11:56 PM
Thu, Jun 30
79 °FPassing clouds.6 mph50%29.86 "Hg10 mi
10:56 PM79 °FMostly cloudy.12 mph56%29.85 "Hg10 mi
9:56 PM81 °FMostly cloudy.13 mph51%29.84 "Hg10 mi
8:56 PM82 °FMostly cloudy.No wind49%29.81 "Hg10 mi
7:56 PM85 °FPartly sunny.16 mph42%29.79 "Hg10 mi
6:56 PM86 °FPartly sunny.6 mph39%29.73 "Hg10 mi
5:56 PM86 °FThunderstorms. Partly sunny.12 mph36%29.70 "Hg10 mi
4:56 PM81 °FThunderstorms. Broken clouds.14 mph67%29.73 "Hg10 mi
3:56 PM76 °FThunderstorms. Broken clouds.20 mph64%29.75 "Hg10 mi
2:56 PM78 °FStrong thunderstorms. Partly sunny.7 mph60%29.76 "Hg3 mi
1:56 PM101 °FThunderstorms. Broken clouds.15 mph20%29.73 "Hg10 mi
Weather by CustomWeather, © 2016

See weather overviewHow to use our weather pages